Weather History for Jennings, LA

Change the Weather History Date:

Tuesday, September 10, 2013

  Actual Average (KLCH) Record (KLCH)
Temperature  
Mean Temperature 81 °F 80 °F  
Max Temperature 91 °F 90 °F 98 °F (1954)
Min Temperature 71 °F 71 °F 61 °F (1943)
Degree Days  
Heating Degree Days 0 0  
Month to date heating degree days 0  
Since 1 July heating degree days 0  
Cooling Degree Days 16 15  
Month to date cooling degree days 161  
Year to date cooling degree days 2290  
Growing Degree Days 31 (Base 50)    
Moisture  
Dew Point 71 °F    
Average Humidity 77    
Maximum Humidity 97    
Minimum Humidity 48    
Precipitation  
Precipitation 0.00 in 0.21 in 2.14 in (1998)
Month to date precipitation 1.92  
Year to date precipitation 40.14  
Snow  
Snow 0.00 in 0.00 in 0.00 in ()
Month to date snowfall 0.0  
Since 1 July snowfall 0.0  
Since 1 September snowfall 0.0  
Snow Depth -    
Sea Level Pressure  
Sea Level Pressure 30.05 in    
Wind  
Wind Speed 6 mph (ESE)    
Max Wind Speed 21 mph    
Max Gust Speed 26 mph    
Visibility 10 miles    
Events      
T = Trace of Precipitation, MM = Missing Value Source: NWS Daily Summary

Daily Weather History Graph

Daily Weather History Graph

Search for Another Location

Airport:

Trip Planner

Search our weather history database for the weather conditions in past years. The results will help you decide how hot, cold, wet, or windy it might be!

Date:

Astronomy

Sep. 10, 2013 Rise Set
Actual Time 6:52 AM CDT 7:22 PM CDT
Civil Twilight 6:28 AM CDT 7:46 PM CDT
Nautical Twilight 6:00 AM CDT 8:14 PM CDT
Astronomical Twilight 5:31 AM CDT 8:43 PM CDT
Moon 11:53 AM CDT (9/10) 10:51 PM CDT (9/10)
Length of Visible Light 13h 17m
Length of Day
12h 29m
Waxing Crescent, 28% of the Moon is Illuminated
Sep 10
Waxing Crescent
Sep 12
First Quarter
Sep 19
Full
Sep 26
Last Quarter
Oct 4
New

Hourly Weather History & Observations

Time (CDT) Temp. Heat Index Dew Point Humidity Pressure Visibility Wind Dir Wind Speed Gust Speed Precip Events Conditions
12:15 AM 75.9 °F - 73.0 °F 91% 30.00 in 10.0 mi East 3.5 mph - N/A   Clear
12:35 AM 75.4 °F - 73.0 °F 92% 30.00 in 10.0 mi Calm Calm - N/A   Clear
12:55 AM 76.1 °F - 73.0 °F 90% 30.00 in 10.0 mi Calm Calm - N/A   Clear
1:15 AM 75.4 °F - 72.9 °F 92% 30.00 in 10.0 mi Calm Calm - N/A   Clear
1:35 AM 74.8 °F - 72.5 °F 92% 30.00 in 10.0 mi North - - N/A   Clear
1:55 AM 74.8 °F - 72.5 °F 92% 30.01 in 10.0 mi North - - N/A   Clear
2:15 AM 74.3 °F - 72.5 °F 94% 30.01 in 10.0 mi North - - N/A   Clear
2:35 AM 74.1 °F - 72.3 °F 94% 30.01 in 10.0 mi North - - N/A   Clear
2:55 AM 74.3 °F - 72.5 °F 94% 30.01 in 10.0 mi North - - N/A   Clear
3:15 AM 73.6 °F - 72.0 °F 95% 30.02 in 10.0 mi ESE 3.5 mph - N/A   Clear
3:35 AM 73.4 °F - 71.8 °F 95% 30.02 in 10.0 mi North - - N/A   Clear
3:55 AM 73.4 °F - 71.8 °F 95% 30.03 in 10.0 mi North - - N/A   Clear
4:15 AM 73.0 °F - 71.6 °F 95% 30.03 in 7.0 mi Calm Calm - N/A   Clear
4:35 AM 72.7 °F - 71.6 °F 96% 30.03 in 7.0 mi North - - N/A   Clear
4:55 AM 72.0 °F - 71.1 °F 97% 30.03 in 7.0 mi North - - N/A   Clear
5:15 AM 72.5 °F - 71.6 °F 97% 30.04 in 7.0 mi North - - N/A   Clear
5:35 AM 72.1 °F - 71.1 °F 96% 30.04 in 7.0 mi North - - N/A   Clear
5:55 AM 71.6 °F - 70.7 °F 97% 30.04 in 7.0 mi North - - N/A   Clear
6:15 AM 71.6 °F - 70.7 °F 97% 30.05 in 7.0 mi North - - N/A   Clear
6:35 AM 71.6 °F - 70.3 °F 96% 30.05 in 7.0 mi North - - N/A   Clear
6:55 AM 71.8 °F - 70.7 °F 96% 30.06 in 7.0 mi North - - N/A   Clear
7:15 AM 72.0 °F - 70.9 °F 96% 30.07 in 7.0 mi North - - N/A   Clear
7:35 AM 72.5 °F - 71.2 °F 96% 30.07 in 7.0 mi North - - N/A   Clear
7:55 AM 73.6 °F - 72.0 °F 95% 30.08 in 7.0 mi North - - N/A   Clear
8:15 AM 75.2 °F - 72.5 °F 91% 30.08 in 10.0 mi North - - N/A   Clear
8:35 AM 76.5 °F - 72.7 °F 88% 30.08 in 10.0 mi ENE 8.1 mph - N/A   Clear
8:55 AM 78.1 °F - 73.2 °F 85% 30.08 in 10.0 mi East 9.2 mph - N/A   Clear
9:15 AM 79.7 °F - 73.4 °F 81% 30.09 in 10.0 mi North - - N/A   Clear
9:35 AM 81.1 °F 86.4 °F 73.8 °F 78% 30.09 in 10.0 mi ENE 6.9 mph - N/A   Clear
9:55 AM 82.6 °F 88.8 °F 73.8 °F 75% 30.10 in 10.0 mi ENE 6.9 mph - N/A   Clear
10:15 AM 83.8 °F 90.8 °F 73.8 °F 72% 30.10 in 10.0 mi North - - N/A   Clear
10:35 AM 84.7 °F 91.7 °F 73.6 °F 69% 30.10 in 10.0 mi East 8.1 mph - N/A   Clear
10:55 AM 86.0 °F 93.8 °F 73.9 °F 67% 30.10 in 10.0 mi East 9.2 mph - N/A   Clear
11:15 AM 85.6 °F 92.2 °F 72.7 °F 65% 30.10 in 10.0 mi East 6.9 mph - N/A   Scattered Clouds
11:35 AM 86.9 °F 94.1 °F 72.9 °F 63% 30.10 in 10.0 mi East 8.1 mph - N/A   Scattered Clouds
11:55 AM 88.3 °F 94.5 °F 71.6 °F 57% 30.09 in 10.0 mi East 9.2 mph - N/A   Scattered Clouds
12:15 PM 88.5 °F 94.9 °F 71.8 °F 57% 30.09 in 10.0 mi ENE 5.8 mph - N/A   Scattered Clouds
12:35 PM 89.4 °F 94.4 °F 69.6 °F 52% 30.08 in 10.0 mi SE 11.5 mph - N/A   Mostly Cloudy
12:55 PM 90.1 °F 95.8 °F 70.2 °F 52% 30.08 in 10.0 mi East 11.5 mph - N/A   Scattered Clouds
1:15 PM 90.0 °F 94.5 °F 68.9 °F 50% 30.07 in 10.0 mi ESE 12.7 mph - N/A   Clear
1:35 PM 90.5 °F 94.6 °F 68.5 °F 48% 30.07 in 10.0 mi East 11.5 mph - N/A   Clear
1:55 PM 90.9 °F 95.3 °F 68.5 °F 48% 30.07 in 10.0 mi ESE 13.8 mph 19.6 mph N/A   Clear
2:15 PM 91.4 °F 96.3 °F 69.1 °F 48% 30.06 in 10.0 mi SE 13.8 mph 19.6 mph N/A   Clear
2:35 PM 89.4 °F 93.5 °F 68.5 °F 50% 30.05 in 10.0 mi ESE 11.5 mph 24.2 mph N/A   Scattered Clouds
2:55 PM 89.1 °F 93.3 °F 68.9 °F 51% 30.05 in 10.0 mi East 10.4 mph - N/A   Clear
3:15 PM 89.2 °F 93.6 °F 69.1 °F 51% 30.04 in 10.0 mi East 8.1 mph - N/A   Clear
3:35 PM 91.0 °F 97.1 °F 70.7 °F 51% 30.03 in 10.0 mi ESE 5.8 mph - N/A   Clear
3:55 PM 90.0 °F 95.0 °F 69.8 °F 51% 30.02 in 10.0 mi ESE 5.8 mph - N/A   Clear
4:15 PM 90.5 °F 95.5 °F 69.6 °F 50% 30.01 in 10.0 mi SE 5.8 mph - N/A   Scattered Clouds
4:35 PM 91.0 °F 96.6 °F 70.2 °F 50% 30.02 in 10.0 mi SE 9.2 mph - N/A   Mostly Cloudy
4:55 PM 89.8 °F 95.1 °F 69.8 °F 52% 30.02 in 10.0 mi East 20.7 mph 26.5 mph N/A   Mostly Cloudy
5:15 PM 86.2 °F 90.4 °F 69.4 °F 57% 30.02 in 10.0 mi East 12.7 mph - N/A   Scattered Clouds
5:35 PM 86.9 °F 91.3 °F 69.4 °F 56% 30.02 in 10.0 mi East 9.2 mph - N/A   Clear
5:55 PM 87.3 °F 92.0 °F 69.6 °F 56% 30.02 in 10.0 mi East 11.5 mph - N/A   Clear
6:15 PM 84.6 °F 90.0 °F 71.6 °F 65% 30.03 in 10.0 mi SSE 15.0 mph 24.2 mph N/A   Scattered Clouds
6:35 PM 81.1 °F 85.4 °F 71.8 °F 73% 30.03 in 10.0 mi SE 10.4 mph - N/A   Scattered Clouds
6:55 PM 80.6 °F 84.2 °F 70.7 °F 72% 30.04 in 10.0 mi SE 6.9 mph - N/A   Clear
7:15 PM 80.2 °F 83.5 °F 70.2 °F 71% 30.04 in 10.0 mi ESE 5.8 mph - N/A   Clear
7:35 PM 80.1 °F 83.3 °F 70.3 °F 72% 30.04 in 10.0 mi ESE 6.9 mph - N/A   Clear
7:55 PM 79.2 °F - 71.2 °F 77% 30.04 in 10.0 mi ESE 5.8 mph - N/A   Clear
8:15 PM 78.8 °F - 71.6 °F 78% 30.04 in 10.0 mi SE 5.8 mph - N/A   Clear
8:35 PM 78.6 °F - 71.6 °F 79% 30.05 in 10.0 mi SSE 6.9 mph - N/A   Clear
8:55 PM 78.1 °F - 72.0 °F 81% 30.06 in 10.0 mi SE 4.6 mph - N/A   Clear
9:15 PM 77.9 °F - 71.8 °F 81% 30.06 in 10.0 mi SE 4.6 mph - N/A   Clear
9:35 PM 77.5 °F - 72.0 °F 83% 30.07 in 10.0 mi ESE 3.5 mph - N/A   Clear
9:55 PM 77.2 °F - 72.0 °F 84% 30.08 in 10.0 mi East 3.5 mph - N/A   Clear
10:15 PM 76.5 °F - 72.5 °F 87% 30.08 in 10.0 mi ENE 3.5 mph - N/A   Clear
10:35 PM 76.6 °F - 72.5 °F 87% 30.08 in 10.0 mi Calm Calm - N/A   Clear
10:55 PM 75.6 °F - 72.3 °F 90% 30.08 in 10.0 mi North - - N/A   Clear
11:15 PM 75.7 °F - 72.3 °F 89% 30.08 in 10.0 mi Calm Calm - N/A   Clear
11:35 PM 76.8 °F - 72.5 °F 86% 30.08 in 10.0 mi ESE 4.6 mph - N/A   Clear
11:55 PM 76.5 °F - 72.5 °F 87% 30.07 in 10.0 mi ESE 3.5 mph - N/A   Clear